Regional Weather Roundup
Issued by NWS

Home | Current Version | Previous Version | Graphics & Text | Print | Product List | Glossary On
Versions: 1 2 3 4 5 6 7 8 9 10 11 12 13 14 15 16 17 18 19 20 21 22 23 24 25 26 27 28 29 30 31 32 33 34 35 36 37 38 39 40 41 42 43 44 45 46 47 48 49 50
000
ASUS43 KDTX 011010
RWRMI
MICHIGAN HOURLY REGIONAL WEATHER ROUNDUP
NATIONAL WEATHER SERVICE DETROIT/PONTIAC MI
500 AM EST SUN MAR 01 2015

NOTE: "FAIR" INDICATES FEW OR NO CLOUDS BELOW 12,000 FEET WITH NO
SIGNIFICANT WEATHER AND/OR OBSTRUCTION TO VISIBILITY.

MIZ047>049-052>055-059>063-066>070-074>076-081>083-011100-
SOUTHEAST LOWER MICHIGAN

CITY           SKY/WX    TMP DP  RH WIND       PRES   REMARKS
ADRIAN         CLOUDY    14  11  87 E5        30.40F
ALMA           LGT SNOW  12  10  89 S5        30.41S
ANN ARBOR      CLOUDY    15  11  83 E3        30.40S
BAD AXE        LGT SNOW  13   9  83 S5        30.42S
DETROIT CITY   CLOUDY    16  10  77 E5        30.42F
DETROIT        CLOUDY    16  12  84 CALM      30.42F
FLINT          LGT SNOW  15  10  80 CALM      30.41F
GROSSE ILE     LGT SNOW  16  12  86 NE3       30.40F
HILLSDALE      FLURRIES  14  11  88 CALM      30.36R
HOWELL         LGT SNOW  11   9  89 CALM      30.38F

CITY           SKY/WX    TMP DP  RH WIND       PRES   REMARKS
JACKSON        CLOUDY    14  10  84 CALM      30.38F FOG
LAMBERTVILLE   LGT SNOW  19  14  79 CALM      30.41S
LANSING        CLOUDY    12   8  84 SE3       30.40F
LAPEER         NOT AVBL
MASON          LGT SNOW  12   9  86 CALM      30.39F
MONROE         LGT SNOW  16  14  93 CALM      30.40S
MT. CLEMENS    PTCLDY    13  10  87 E2        30.41F
PONTIAC        LGT SNOW  13  10  88 CALM      30.38F FOG
PORT HOPE        N/A     14   3  61 VRB3      30.42F
PORT HURON     LGT SNOW  12   9  85 CALM      30.44F
TRI CITIES     LGT SNOW  15  10  80 S5        30.43S
YPSILANTI      CLOUDY    18  11  74 NE3       30.41S
$$
MIZ043>046-050>051-056>058-064>065-071>073-077>080-011100-
SOUTHWEST LOWER MICHIGAN

CITY           SKY/WX    TMP DP  RH WIND       PRES   REMARKS
BATTLE CREEK   LGT SNOW  14   9  80 CALM      30.39S
BENTON HARBOR  MOCLDY    11   9  92 CALM      30.40F FOG
BIG RAPIDS     MOCLDY     9   2  75 CALM      30.36F
COLDWATER      CLOUDY    15  11  85 CALM      30.38R
HOLLAND        CLEAR      8   6  92 SE3       30.41F FOG
GRAND RAPIDS   PTCLDY    10   7  87 CALM      30.40S FOG
KALAMAZOO      LGT SNOW  12   8  84 CALM      30.39S FOG
MARSHALL       FLURRIES  13  10  87 CALM      30.37F
MUSKEGON       LGT SNOW  16  12  84 SE9       30.40S FOG
$$
MIZ016>042-011100-
NORTHERN LOWER MICHIGAN

CITY           SKY/WX    TMP DP  RH WIND       PRES   REMARKS
ALPENA         CLOUDY     7   0  73 S3        30.38F
BEAVER ISLAND  CLOUDY    15   8  72 CALM      30.31F
BELLAIRE       CLOUDY    13   5  71 CALM      30.36F
CADILLAC       LGT SNOW  10   1  67 S5        30.30F
CHARLEVOIX     CLOUDY    16   5  62 CALM      30.37F
FRANKFORT      LGT SNOW  17  14  89 SE6       30.35F
GAYLORD        CLOUDY    10   0  63 S6        30.29F
GRAYLING       PTCLDY     3  -5  69 CALM      30.33F
HARBOR SPRINGS CLOUDY    14   4  62 SW6       30.33F
HOUGHTON LAKE  CLOUDY     9   1  70 SE3       30.34F
MANISTEE       CLOUDY    16   9  73 CALM      30.37S
OSCODA         PTCLDY    11   2  69 SW5       30.40F
PELLSTON       CLOUDY     9   2  73 VRB3      30.33F
TRAVERSE CITY  CLOUDY    15   4  61 CALM      30.34F
$$
MIZ007>008-015-011100-
EASTERN UPPER MICHIGAN

CITY           SKY/WX    TMP DP  RH WIND       PRES   REMARKS
KINROSS        CLOUDY    10   9  92 S5        30.30F
MACKINAC ISLAN CLOUDY    11   4  75 S8        30.31F
NEWBERRY       CLOUDY    11   7  83 S7        30.27F
S. S. MARIE    CLOUDY     5   0  79 E5        30.30F
$$
MIZ004>006-011>014-085-011100-
CENTRAL UPPER MICHIGAN

CITY           SKY/WX    TMP DP  RH WIND       PRES   REMARKS
MANISTIQUE     CLOUDY    15   5  64 SW6       30.29F
ESCANABA       CLOUDY    12   3  67 SW6       30.31F
MENOMINEE      CLOUDY    14   1  57 W6        30.32S
SAWYER-GWINN   CLOUDY     9  -1  64 SW10      30.21F WCI  -5
$$
MIZ001>003-009>011-084-011100-
WESTERN UPPER MICHIGAN

CITY           SKY/WX    TMP DP  RH WIND       PRES   REMARKS
IRON MOUNTAIN  CLEAR      7  -3  64 S3        30.24S
HOUGHTON       CLOUDY    12   2  64 SW7       30.16F
COPPER HARBOR    N/A     15  -1  49 VRB5      30.18F
IRONWOOD       CLOUDY    12   3  67 SW14      30.15S WCI  -3
$$

ABBREVIATIONS USED IN REMARKS
   TC - TEMPERATURE IN CELSIUS
  WCI - WIND CHILL INDEX
   HX - HEAT INDEX
  VSB - VISIBILITY




USA.gov is the U.S. government's official web portal to all federal, state and local government web resources and services.